www.pogodaiklimat.ru

Погода и климат >> Архив погоды >> Китай >> Ejin Qi


ПОГОДА в Ejin Qi

  • Прогноз погоды в Ejin Qi
  • Монитор погоды в Ejin Qi
  • Климат города

АРХИВ ПОГОДЫ в Ejin Qi

Время (UTC), дата Ветер
(напр.,м/с)
 
Видим.   Явления Облачность Т
(С)
Тd
(С)
f
(%)
Тe
(С)
Тes
(С)
Комфортность P
(гПа)
Po
(гПа)
Тmin
(С)
Tmax
(С)
R
(мм)
R24
(мм)
S
(см)
06 19.05 С 1 30 км 9/9
[]
+32.8 -4.2 9 +29 +31 жарко 996.9 897.0 +18.7
09 19.05 СВ 4 30 км 9/9
[]
+34.1 -4.8 8 +30 +31 жарко 995.8 996.0
12 19.05 С 1 20 км 9/9 1500 м
[]
+31.2 -0.5 13 +28 +28 жарко 997.0 896.2
15 19.05 СВ 1 17 км ?/? +26.1 0.0 18 +24 +24 комфорт 998.3 998.0
18 19.05 С 3 30 км ?/? +22.5 +5.0 32 +23 +23 комфорт 999.2 898.6 +34.1
21 19.05 СЗ 4 29 км ?/? +18.2 +2.5 35 +18 +18 1000.5 1001.0
00 20.05 С 4 30 км 9/9
[]
+19.3 -1.2 25 +19 +20 1002.3 900.6
03 20.05 СЗ 4 21 км 8/8
[]
+25.9 -1.8 16 +24 +26 комфорт 1002.3 1002.0
06 20.05 С 5 15 км 9/9
[]
+30.8 -3.0 11 +27 +28 жарко 1000.8 899.7 +17.4
09 20.05 З 6 11 км 9/9
[]
+29.2 -1.0 14 +26 +27 жарко 1001.5 1002.0
12 20.05 С 5 3300 м пыльный позёмок ясно +23.3 -1.6 19 +22 +22 комфорт 1006.2 902.8
15 20.05 С 2 7000 м ?/? +19.2 -0.8 26 +20 +20 1010.2 871.2
18 20.05 СВ 2 21 км ?/? +16.8 -0.4 31 +17 +17 1010.6 907.6 +31.3
21 20.05 В 2 2300 м мгла ?/? +14.9 -2.5 30 +15 +15 1011.8 1012.0
00 21.05 В 4 7000 м пыль 9/9
[]
+14.6 -1.1 34 +14 +14 1015.0 909.9
03 21.05 ЮВ 4 8000 м 9/9 2000 м
[]
+17.4 -2.8 25 +17 +18 1015.7 874.9
06 21.05 В 2 16 км 9/9 2000 м
[]
+20.9 -2.9 20 +21 +23 комфорт 1013.6 908.6 +13.7
09 21.05 С 2 19 км 9/9 2000 м
[]
+22.3 -3.1 18 +21 +22 комфорт 1012.3 1012.0
12 21.05 СЗ 2 13 км 9/9
[]
+21.9 -3.5 18 +21 +21 комфорт 1013.2 908.1
15 21.05 штиль 0 12 км ?/? +18.4 -2.5 24 +18 +18 1015.6 874.1
18 21.05 штиль 0 13 км ?/? +14.8 -0.1 36 +15 +15 1015.7 910.2 +22.9
21 21.05 ЮВ 2 27 км ?/? +13.1 -0.2 40 +13 +13 1016.1 1016.0
00 22.05 В 4 30 км ясно +13.6 +1.9 45 +12 +14 1017.7 911.9
03 22.05 В 3 15 км ясно +20.5 +0.4 26 +21 +33 комфорт 1017.5 876.7
06 22.05 С 2 30 км ясно +24.4 -4.8 14 +22 +41 комфорт 1015.7 910.8 +11.1
09 22.05 СВ 2 21 км 1/1
[]
+25.2 -5.2 13 +23 +31 комфорт 1014.1 1014.0
12 22.05 В 2 30 км 9/9
[]
+24.0 -5.1 14 +22 +22 комфорт 1014.1 909.1
15 22.05 В 2 30 км ?/? +19.7 -5.3 18 +20 +20 1014.8 874.5
18 22.05 В 2 30 км ?/? +16.1 -3.9 25 +16 +16 1014.9 910.3 +25.8
21 22.05 В 2 30 км ?/? +13.2 -0.8 38 +13 +13 1015.8 1016.0
00 23.05 В 4 30 км ясно +17.1 -1.5 28 +17 +19 1017.1 912.3
03 23.05 В 3 30 км ясно +25.3 -5.1 13 +23 +35 комфорт 1016.6 877.4
06 23.05 В 1 30 км ясно +26.9 -8.6 9 +24 +46 комфорт 1015.4 911.1 +12.7
09 23.05 В 3 30 км ясно +28.0 -11.0 7 +24 +32 комфорт 1013.4 1013.0
12 23.05 В 2 30 км ясно +26.4 -9.0 9 +23 +24 комфорт 1013.4 909.4
15 23.05 Ю 1 30 км ?/? +20.4 -8.0 14 +21 +21 комфорт 1014.4 875.3
18 23.05 Ю 2 30 км ?/? +19.1 -11.0 12 +19 +19 1014.4 910.7 +28.3
21 23.05 В 1 30 км ?/? +14.6 -5.7 24 +15 +15 1014.7 1015.0
00 24.05 С 2 25 км ясно +17.6 -4.4 22 +18 +21 1016.0 911.8
03 24.05 З 1 30 км ясно +25.0 -8.7 10 +22 +40 комфорт 1015.8 876.7
06 24.05 С 1 30 км ясно +29.0 -12.2 6 +25 +47 комфорт 1013.3 910.1 +13.9
09 24.05 ЮВ 1 30 км ясно +30.6 -13.3 5 +26 +37 жарко 1011.7 1012.0
12 24.05 Ю 2 30 км ясно +29.2 -12.0 6 +25 +25 комфорт 1011.1 907.9
15 24.05 З 3 30 км ?/? +25.2 -11.4 8 +22 +22 комфорт 1011.6 873.5
18 24.05 З 3 30 км ?/? +22.7 -13.2 8 +20 +20 1010.8 908.4 +30.9
21 24.05 З 2 30 км ?/? +17.3 -12.4 12 +18 +18 1011.7 1012.0
00 25.05 З 3 30 км ясно +19.5 -10.6 12 +19 +22 1012.5 1028.8
03 25.05 СЗ 2 30 км ясно +29.8 -13.9 5 +25 +40 комфорт 1011.0 1011.0
06 25.05 З 5 30 км ясно +33.0 -14.4 4 +28 +38 жарко 1008.7 907.2 +15.5
09 25.05 З 2 30 км ясно +33.9 -13.8 4 +29 +38 жарко 1007.1 1007.0
12 25.05 ЮЗ 2 30 км ясно +31.8 -15.2 4 +27 +27 жарко 1006.3 1040.2
15 25.05 ЮЗ 3 30 км ?/? +27.3 -13.4 6 +24 +24 комфорт 1005.6 1006.0
18 25.05 ЮЗ 2 30 км ?/? +23.0 -13.0 8 +20 +20 1005.2 904.1 +34.2
21 25.05 З 2 30 км ?/? +21.0 -11.8 10 +21 +21 комфорт 1005.3 1005.0
00 26.05 Ю 1 26 км ясно +20.8 -3.0 20 +22 +25 комфорт 1006.9 905.1
03 26.05 ЮЗ 1 30 км ясно +30.0 -11.5 6 +26 +43 жарко 1006.3 1006.0

 

Местоположение метеостанции Ejin Qi (Китай): широта 41.95 долгота 101.06 высота над уровнем моря 941 м.

В архиве по умолчанию представлена погода в Ejin Qi за последнюю неделю. Архивные данные за месяц целиком и за предыдущие месяцы, начиная с января 2011 года, Вы можете получить, выбрав интересующий диапазон дат из раскрывающегося списка и нажав кнопку "Ввод!".

Внимание! Время в таблицах - всемирное. Для получения местного времени необходимо прибавить поправку, которая в Ejin Qi равна 8 ч.

Смотрите также архив погоды в соседних городах и на ближайших метеорологических станциях:

Погода в Guai Zi Hu (Китай) (126 км)
Погода в Shine Usa (Монголия) (127 км)
Погода в Bogd (Монголия) (313 км)
Погода в Bayan Mod (Китай) (317 км)
Погода в Jiuquan (Китай) (325 км)
Погода в Dalanzadgad (Монголия) (328 км)
Погода в Mazong Shan (Китай) (334 км)
Погода в Zhangye (Китай) (340 км)
Погода в Amarbuyantayn (Монголия) (353 км)
Погода в Yumen Zhen (Китай) (386 км)

Пояснения к столбцам:

Ветер - указаны скорость ветра в м/с - средняя за 10 мин, порывы в срок и между сроками (в фигурных скобках) и направление, откуда дует ветер: С - северный, СВ - северо-восточный, В - восточный, ЮВ - юго-восточный, Ю - южный, ЮЗ - юго-западный, З - западный, СЗ - северо-западный.
Видимость - горизонтальная дальность видимости в метрах или километрах. При видимости от 1 до 10 км при отсутствии осадков обычно наблюдается дымка, при ухудшении видимости до 1 км и менее - туман. В сухую погоду видимость может ухудшаться дымом, пылью или мглою.
Явления - указаны атмосферные явления, наблюдавшиеся в срок или в последний час перед сроком; фигурными скобками обозначены явления, наблюдавшиеся между сроками (за 1-3 часа до срока); квадратными скобками обозначены град или гололедные отложения с указанием их диаметра в мм.
Облачность - указаны через наклонную черту общая и нижняя облачность в баллах и высота нижней границы облаков в метрах; квадратными скобками обозначены формы облаков: Ci - перистые, Cs - перисто-слоистые, Cc - перисто-кучевые, Ac - высококучевые, As - высокослоистые, Sc - слоисто-кучевые, Ns - слоисто-дождевые, Cu - кучевые, Cb - кучево-дождевые. Подробнее классификацию облаков см. в Атласе облаков (PDF).
T - Температура воздуха - температура, измеренная на высоте 2 м над землей.
Td - Температура точки росы - температура, при понижении до которой содержащийся в воздухе водяной пар достигнет насыщения.
f - Относительная влажность воздуха - влажноcть воздуха, измеренная на высоте 2 м над землей.
Te - Эффективная температура - температура, которую ощущает одетый по сезону человек в тени. Характеристика душности погоды. При расчете учитывается влияние влажности воздуха и скорости ветра на теплоощущения человека.
Tes - Эффективная температура на солнце - температура, которую ощущает человек, с поправкой на солнечный нагрев. Характеристика знойности погоды. Зависит от высоты солнца над горизонтом, облачности и скорости ветра. Ночью, в пасмурную погоду, а также при ветре 12 м/с и более поправка равна нулю.
P - Атмосферное давление - приведенное к уровню моря атмосферное давление.
Po - Атмосферное давление - измеренное на уровне метеостанции атмосферное давление.
Tmin - Минимальная температура - минимум температуры воздуха на высоте 2 м над землей.
Tmax - Максимальная температура - максимум температуры воздуха на высоте 2 м над землей.
R - Количество осадков - Количество выпавших осадков за период времени, мм. При наведении курсора мыши на число - период времени, за который выпало указанное количество осадков.
R24 - Количество осадков - Количество выпавших осадков за 24 часа, мм.
S - Снежный покров - Высота снежного покрова, см. При наведении курсора мыши на число - состояние снежного покрова и степень покрытия местности в баллах.